Вернуться в каталог

STARLINK-37489

АктивенСвязьVLEO
NORAD 69251·PAYLOAD·🇺🇸 United States

Запущен May 29, 2026 с Cape Canaveral Space Force Station

Loading…

Ближайшие Пролёты (ближайшие 24 часа)

TLE

СвежийSource: CelesTrak SupGP

Эпоха: Sep 15, 2026, 04:25 UTC

1 69251C 26117P   26258.18451389  .00013263  00000+0  39201-3 0  2582
2 69251  53.1580 178.3925 0001250  85.4364 280.7478 15.34372271    12

Отслеживайте STARLINK-37489 в реальном времени с AllMySat

Download on the App Store